Regional Weather Roundup
Issued by NWS Midland/Odessa, TX

Skip options and go directly to product.
Home | Oldest Version | Previous Version | Current Version | All | Text Only | Save Text | Print | Product List | Glossary Off

Skip product version selection by date and time.   

109
ASUS44 KMAF 291510
RWRMAF
MIDLAND AREA WEATHER ROUNDUP
NATIONAL WEATHER SERVICE MIDLAND TX
1000 AM CDT TUE JUL 29 2014

...IN SOUTHWEST TEXAS AND SOUTHEAST NEW MEXICO...

CITY           SKY/WX    TMP DP  RH WIND       PRES   REMARKS
ALPINE         SUNNY     79  55  42 S5        30.31S
ANDREWS        FAIR      77  62  60 NE10      30.23S
ARTESIA        LGT RAIN  70  64  83 N16G22    30.25R
BIG SPRING     SUNNY     82  63  53 SE3       30.22S
CARLSBAD       PTSUNNY   79  62  56 NE7       30.20S
DRYDEN           N/A     86  66  51 E7        30.13S
FORT STOCKTON  SUNNY     82  59  45 SE8       30.18S
GUAD PASS      PTSUNNY   74  56  53 CALM      30.34R
HOBBS          MOSUNNY   73  61  64 NE13      30.27R
MARFA          SUNNY     75  55  50 S3        30.31S
MIDLAND AIRPK  SUNNY     80  65  58 E8        30.20F HAZE
MIDLAND INTL   SUNNY     81  65  58 SE10      30.19S
ODESSA         SUNNY     80  63  55 SE10      30.20S
PECOS          SUNNY     84  57  39 E8        30.14S
PRESIDIO       FAIR      87  54  31 E3        30.14S
SEMINOLE       SUNNY     73  59  62 NE12      30.26S
SNYDER         SUNNY     74  62  66 E7        30.21F
WINK           MOSUNNY   83  61  47 SE10      30.16R
$$
...OTHER STATIONS IN TEXAS...

CITY           SKY/WX    TMP DP  RH WIND       PRES   REMARKS
ABILENE        MOSUNNY   80  61  52 SE12      30.19S
AMARILLO       CLOUDY    68  59  73 S12       30.28S
AUSTIN         MOSUNNY   85  72  65 VRB5      30.12R
BROWNSVILLE    MOSUNNY   88  75  65 S9        30.08F
CORPUS CHRISTI MOSUNNY   85  75  72 S12       30.09S
DALLAS FTW     CLOUDY    80  61  52 NE6       30.15S
DEL RIO        SUNNY     85  68  56 SE10      30.08F
EL PASO        CLOUDY    70  66  87 N10       30.23R
HOUSTON INT    PTSUNNY   86  74  67 NW8       30.09R
LUBBOCK        LGT RAIN  67  63  87 CALM      30.27S
SAN ANGELO     SUNNY     82  67  60 VRB6      30.16S
SAN ANTONIO    MOSUNNY   85  70  60 CALM      30.12R
WACO           MOSUNNY   82  67  60 E7        30.13S
WICHITA FALLS  NOT AVBL
$$
...OTHER LOCATIONS IN NEW MEXICO...

CITY           SKY/WX    TMP DP  RH WIND       PRES   REMARKS
ALAMAGORDO     LGT RAIN  70  66  88 S10       30.28R
ALBUQUERQUE    PTSUNNY   69  61  75 S5        30.34R
CANNON AFB     NOT AVBL
CLOVIS         NOT AVBL
HOLLOMAN AFB   PTSUNNY   70  68  94 W6        30.26R
ROSWELL        RAIN      67  65  93 NW7       30.28R FOG
RUIDOSO        LGT RAIN  57  57 100 S7        30.45F
SANTA FE       CLOUDY    63  59  87 SE8       30.39R
TRUTH OR CONSE MOSUNNY   75 N/A N/A CALM      30.28S
TUCUMCARI      LGT RAIN  66  62  87 SW8       30.26F
$$

USA.gov is the U.S. government's official web portal to all federal, state and local government web resources and services.